Terug naar catalogus

FENGYUN 2G

ActiefWeerGEO
NORAD 40367·PAYLOAD·🇨🇳 China

Gelanceerd Dec 31, 2014 vanaf Xichang Satellite Launch Center

Loading…

TLE

VersSource: Space-Track

Epoch: Sep 14, 2026, 12:33 UTC

1 40367U 14090A   26257.52356869 -.00000310  00000-0  00000-0 0  9995
2 40367   5.8593  71.6952 0003765 186.9465  23.1020  1.00273849 42897

Volg FENGYUN 2G in realtime met AllMySat

Download on the App Store